Change the Weather History Date:

Monday, February 17, 2014

  Actual Average (KTVL) Record (KTVL)
Temperature  
Mean Temperature 35 °F 31 °F  
Max Temperature 52 °F 44 °F 63 °F (2015)
Min Temperature 18 °F 18 °F -8 °F (1969)
Degree Days  
Heating Degree Days 30 34  
Month to date heating degree days 590  
Since 1 July heating degree days 4872  
Cooling Degree Days 0 0  
Month to date cooling degree days 0  
Year to date cooling degree days 0  
Moisture  
Dew Point 15 °F    
Average Humidity 49    
Maximum Humidity 78    
Minimum Humidity 22    
Precipitation  
Precipitation 0.00 in - 3.91 in (1986)
Month to date precipitation  
Year to date precipitation  
Sea Level Pressure  
Sea Level Pressure 30.12 in    
Wind  
Wind Speed 4 mph (SW)    
Max Wind Speed 16 mph    
Max Gust Speed 26 mph    
Visibility 10 miles    
Events      
T = Trace of Precipitation, MM = Missing Value Source: NWS Daily Summary

Daily Weather History Graph

Daily Weather History Graph

Search for Another Location

Airport or City:

Trip Planner

Search our weather history database for the weather conditions in past years. The results will help you decide how hot, cold, wet, or windy it might be!

Date:

Astronomy

Feb. 17, 2014 Rise Set
Actual Time 6:45 AM PST 5:38 PM PST
Civil Twilight 6:19 AM PST 6:05 PM PST
Nautical Twilight 5:48 AM PST 6:36 PM PST
Astronomical Twilight 5:17 AM PST 7:07 PM PST
Moon 8:35 PM PST (2/17) 7:51 AM PST (2/17)
Length of Visible Light 11h 46m
Length of Day
10h 52m
Waning Gibbous, 93% of the Moon is Illuminated
Feb 17
Waning Gibbous
Feb 22
Last Quarter
Mar 1
New
Mar 8
First Quarter
Mar 16
Full

Hourly Weather History & Observations

Time (PST) Temp. Windchill Dew Point Humidity Pressure Visibility Wind Dir Wind Speed Gust Speed Precip Events Conditions
12:52 AM 23.0 °F - 12.9 °F 65% 30.21 in 10.0 mi Calm Calm - N/A   Clear
1:52 AM 21.0 °F - 12.9 °F 71% 30.17 in 10.0 mi Calm Calm - N/A   Clear
2:52 AM 19.9 °F - 12.0 °F 71% 30.14 in 10.0 mi Calm Calm - N/A   Clear
3:52 AM 19.0 °F - 10.9 °F 71% 30.12 in 10.0 mi Calm Calm - N/A   Clear
4:52 AM 18.0 °F - 12.0 °F 78% 30.13 in 10.0 mi Calm Calm - N/A   Clear
5:52 AM 19.0 °F - 12.0 °F 74% 30.14 in 10.0 mi Calm Calm - N/A   Clear
6:52 AM 19.0 °F - 12.9 °F 77% 30.18 in 10.0 mi Calm Calm - N/A   Clear
7:52 AM 21.0 °F - 14.0 °F 74% 30.18 in 10.0 mi Calm Calm - N/A   Clear
8:52 AM 28.0 °F - 18.0 °F 66% 30.14 in 10.0 mi Calm Calm - N/A   Clear
9:52 AM 37.9 °F - 23.0 °F 55% 30.10 in 10.0 mi Calm Calm - N/A   Clear
10:52 AM 50.0 °F - 17.1 °F 27% 30.06 in 10.0 mi South 12.7 mph 21.9 mph N/A   Clear
11:52 AM 51.1 °F - 16.0 °F 25% 30.05 in 10.0 mi SSW 16.1 mph 26.5 mph N/A   Clear
12:52 PM 52.0 °F - 14.0 °F 22% 30.04 in 10.0 mi South 13.8 mph 19.6 mph N/A   Clear
1:52 PM 50.0 °F - 15.1 °F 25% 30.05 in 10.0 mi South 10.4 mph 20.7 mph N/A   Clear
2:52 PM 50.0 °F - 18.0 °F 28% 30.05 in 10.0 mi South 12.7 mph 20.7 mph N/A   Clear
3:52 PM 48.0 °F - 21.0 °F 34% 30.06 in 10.0 mi South 11.5 mph 23.0 mph N/A   Clear
4:52 PM 46.9 °F - 17.1 °F 30% 30.09 in 10.0 mi SW 9.2 mph - N/A   Clear
5:52 PM 43.0 °F 36.8 °F 21.9 °F 43% 30.13 in 10.0 mi WSW 11.5 mph - N/A   Clear
6:52 PM 39.9 °F 32.1 °F 21.9 °F 49% 30.15 in 10.0 mi SW 13.8 mph 19.6 mph N/A   Clear
7:52 PM 36.0 °F 31.1 °F 17.1 °F 46% 30.17 in 10.0 mi NNW 5.8 mph - N/A   Clear
8:52 PM 34.0 °F 31.0 °F 14.0 °F 44% 30.17 in 10.0 mi NW 3.5 mph - N/A   Clear
9:52 PM 32.0 °F 26.4 °F 10.0 °F 40% 30.14 in 10.0 mi WNW 5.8 mph - N/A   Clear
10:52 PM 32.0 °F 26.4 °F 7.0 °F 35% 30.10 in 10.0 mi WNW 5.8 mph - N/A   Clear
11:52 PM 32.0 °F 28.7 °F 7.0 °F 35% 30.10 in 10.0 mi Variable 3.5 mph - N/A   Clear